"Pseudo-MPEC" for oNj0343

Created 2026 Jul 26 16:35:22 UT using Find_Orb

Click here for an explanation of pseudo-MPECs

 
 Astrometry: 
     oNj0343* C2026 07 15.78851923 33 52.007+03 57 15.77   ~7NF5 21.96gWNEOCPO18
     oNj0343  C2026 07 15.78957223 33 51.916+03 57 14.84   ~7NF5 22.33gWNEOCPO18
     oNj0343  C2026 07 15.86024323 33 45.397+03 56 07.58   ~7NF5 21.81rWNEOCPO18
     oNj0343  C2026 07 19.76721123 27 34.805+02 51 18.25   ~7NF5 21.44rWNEOCPO18
     oNj0343  C2026 07 19.77091423 27 34.440+02 51 14.71   ~7NF5 21.55rWNEOCPO18
     oNj0343  C2026 07 19.84059023 27 27.242+02 50 01.96   ~7NF5 22.36gWNEOCPO18
     oNj0343  C2026 07 21.80475723 24 05.114+02 15 18.09   ~7NF5 22.47gWNEOCPO18
     oNj0343  C2026 07 21.84098423 24 01.199+02 14 39.03   ~7NF5 21.96rWNEOCPO18
     oNj0343  C2026 07 22.76756923 22 22.522+01 57 47.70   ~7NF5 21.66rWNEOCPO18
     oNj0343  C2026 07 22.84059023 22 14.424+01 56 27.10   ~7NF5 22.42gWNEOCPO18
     oNj0343 0C2026 07 24.57319323 19 03.553+01 24 11.21   ~7OFo 21.70wXNEOCPF51
     oNj0343 0C2026 07 24.58498423 19 02.189+01 23 58.11   ~7OFo 21.75wXNEOCPF51
     oNj0343 0C2026 07 24.60870823 18 59.435+01 23 31.05   ~7OFo 21.72wXNEOCPF51
     oNj0343 0C2026 07 26.49402423 15 24.352+00 47 17.92   ~7QGZ 20.93GVNEOCPF52
     oNj0343 0C2026 07 26.51318123 15 22.056+00 46 55.19   ~7QGZ 20.96GVNEOCPF52
     oNj0343 0C2026 07 26.52283423 15 20.904+00 46 44.17   ~7QGZ 21.46GVNEOCPF52

Station data:
(F51) Pan-STARRS 1, Haleakala  (N20.707234 W156.255910)  US/Hawaii.
   Observers J. Herman, T. Lowe, P. Minguez, A. Schultz, I. Smith. Measurers
   K. Chambers, T. de Boer, J. Fairlamb, H. Gao, M. Huber, C.-C. Lin, E.
   Magnier, Y. Ramanjooloo, R. Wainscoat, R. Weryk. 1.8-m Ritchey-Chrétien +
   CCD.
(F52) Pan-STARRS 2, Haleakala  (N20.707382 W156.255910)  US/Hawaii.
   Observers J. Herman, T. Lowe, P. Minguez, A. Schultz, I. Smith. Measurers
   K. Chambers, T. de Boer, J. Fairlamb, H. Gao, M. Huber, C.-C. Lin, E.
   Magnier, Y. Ramanjooloo, R. Wainscoat, R. Weryk. 1.8-m Ritchey-Chrétien +
   CCD.
(O18) WFST, Lenghu  (N38.607601 E93.895220)  China.  Observers K. Yan, Z. Q.
   Li, J. Z. Zhu, N. Jiang, Z. Y. Liu. Measurers B. Li, H. B. Zhao, Z. J. Xu,
   G. T. Zhaori. 2.5-m f/2.48 reflector + CCD.

Orbital elements:  oNj0343
   Perihelion 2026 Apr 13.076820 +/- 0.0915 TT =  1:50:37.2 (JD 2461143.576820)
Epoch 2026 Jul 26.0 TT = JDT 2461247.5   Earth MOID: 0.1550   Me: 0.0156
M  40.144560331 +/- 0.08            (J2000 ecliptic)             AutoNEOCP
n   0.386290721 +/- 0.000507        Peri.   31.074289 +/- 0.20
a   1.867210142 +/- 0.00163         Node   154.773560 +/- 0.036
e   0.78554087 +/- 0.00163          Incl.   14.841802 +/- 0.15
P   2.551/931.923d         H 19.59  G  0.15   U  7.7
q 0.400440246 +/- 0.00332    Q 3.333980039 +/- 0.00196
From 16 observations 2026 July 15-26; mean residual 0".12
Residuals in arcseconds: 
260715 O18  .06-  .03-    260721 O18  .13-  .03-    260724 F51  .00   .01-    
260715 O18  .02+  .03+    260721 O18  .13+  .07+    260726 F52  .07-  .15+    
260715 O18  .00   .16-    260722 O18  .07-  .11+    260726 F52  .02-  .19-    
260719 O18  .00   .07+    260722 O18  .16-  .13-    260726 F52  .10+  .08+    
260719 O18  .22+  .37+    260724 F51  .03-  .18-    
260719 O18  .00   .05-    260724 F51  .03+  .11+    

Ephemerides (geocentric):
Date (UTC) HH   RA             Dec           delta  r     elong  mag " sig PA
---- --------  ------------   ------------  ------ ------ -----  --- --------
2026 07 26 17  23 14 59.128   +00 43 10.20  .88634 1.7463 133.2 21.7 .075 144
2026 07 26 18  23 14 54.260   +00 42 21.33  .88636 1.7467 133.3 21.7 .077 145
2026 07 26 19  23 14 49.388   +00 41 32.43  .88639 1.7472 133.3 21.7 .079 145
2026 07 26 20  23 14 44.512   +00 40 43.50  .88642 1.7476 133.4 21.7 .082 146
2026 07 26 21  23 14 39.633   +00 39 54.54  .88645 1.7481 133.5 21.7 .084 147
2026 07 26 22  23 14 34.750   +00 39 05.56  .88648 1.7485 133.5 21.7 .087 147
2026 07 26 23  23 14 29.864   +00 38 16.54  .88651 1.7489 133.6 21.7 .090 148
2026 07 27 00  23 14 24.974   +00 37 27.50  .88654 1.7494 133.7 21.7 .092 148
2026 07 27 01  23 14 20.080   +00 36 38.43  .88657 1.7498 133.7 21.7 .095 149
2026 07 27 02  23 14 15.183   +00 35 49.33  .88660 1.7502 133.8 21.7 .097 150
2026 07 27 03  23 14 10.282   +00 35 00.20  .88663 1.7507 133.9 21.7 .100 150
2026 07 27 04  23 14 05.378   +00 34 11.04  .88666 1.7511 133.9 21.7 .103 151
2026 07 27 05  23 14 00.470   +00 33 21.86  .88669 1.7516 134.0 21.7 .106 151
2026 07 27 06  23 13 55.559   +00 32 32.65  .88672 1.7520 134.0 21.7 .108 152
2026 07 27 07  23 13 50.644   +00 31 43.41  .88676 1.7524 134.1 21.7 .111 152
2026 07 27 08  23 13 45.725   +00 30 54.14  .88679 1.7529 134.2 21.7 .114 153
2026 07 27 09  23 13 40.803   +00 30 04.85  .88682 1.7533 134.2 21.7 .117 153
2026 07 27 10  23 13 35.878   +00 29 15.52  .88685 1.7537 134.3 21.7 .120 154
2026 07 27 11  23 13 30.949   +00 28 26.17  .88689 1.7542 134.4 21.7 .123 154
2026 07 27 12  23 13 26.016   +00 27 36.80  .88692 1.7546 134.4 21.7 .126 155
2026 07 27 13  23 13 21.080   +00 26 47.39  .88696 1.7551 134.5 21.7 .129 155
2026 07 27 14  23 13 16.140   +00 25 57.96  .88699 1.7555 134.6 21.7 .132 156
2026 07 27 15  23 13 11.197   +00 25 08.50  .88703 1.7559 134.6 21.7 .135 156
2026 07 27 16  23 13 06.251   +00 24 19.01  .88706 1.7564 134.7 21.7 .138 157
2026 07 27 17  23 13 01.301   +00 23 29.50  .88710 1.7568 134.7 21.7 .141 157
2026 07 27 18  23 12 56.348   +00 22 39.96  .88713 1.7572 134.8 21.7 .144 157
2026 07 27 19  23 12 51.391   +00 21 50.39  .88717 1.7577 134.9 21.7 .147 158
2026 07 27 20  23 12 46.430   +00 21 00.79  .88721 1.7581 134.9 21.7 .150 158
2026 07 27 21  23 12 41.467   +00 20 11.17  .88725 1.7586 135.0 21.7 .153 159
2026 07 27 22  23 12 36.500   +00 19 21.52  .88728 1.7590 135.1 21.7 .157 159
2026 07 27 23  23 12 31.529   +00 18 31.85  .88732 1.7594 135.1 21.7 .160 160
2026 07 28 00  23 12 26.555   +00 17 42.15  .88736 1.7599 135.2 21.7 .163 160
2026 07 28 01  23 12 21.578   +00 16 52.42  .88740 1.7603 135.3 21.7 .167 160
2026 07 28 02  23 12 16.597   +00 16 02.66  .88744 1.7607 135.3 21.7 .170 161
2026 07 28 03  23 12 11.613   +00 15 12.88  .88748 1.7612 135.4 21.7 .173 161
2026 07 28 04  23 12 06.625   +00 14 23.08  .88752 1.7616 135.5 21.7 .177 162
2026 07 28 05  23 12 01.634   +00 13 33.24  .88756 1.7620 135.5 21.7 .180 162
2026 07 28 06  23 11 56.640   +00 12 43.38  .88760 1.7625 135.6 21.7 .184 162
2026 07 28 07  23 11 51.642   +00 11 53.50  .88764 1.7629 135.6 21.7 .188 163
2026 07 28 08  23 11 46.641   +00 11 03.59  .88768 1.7633 135.7 21.7 .191 163
2026 07 28 09  23 11 41.637   +00 10 13.65  .88772 1.7638 135.8 21.7 .195 163
2026 07 28 10  23 11 36.629   +00 09 23.68  .88777 1.7642 135.8 21.7 .198 164
2026 07 28 11  23 11 31.618   +00 08 33.70  .88781 1.7647 135.9 21.7 .202 164
2026 07 28 12  23 11 26.604   +00 07 43.68  .88785 1.7651 136.0 21.7 .206 164
2026 07 28 13  23 11 21.586   +00 06 53.64  .88789 1.7655 136.0 21.7 .210 165
2026 07 28 14  23 11 16.566   +00 06 03.57  .88794 1.7660 136.1 21.7 .213 165
2026 07 28 15  23 11 11.541   +00 05 13.48  .88798 1.7664 136.2 21.7 .217 166
2026 07 28 16  23 11 06.514   +00 04 23.37  .88803 1.7668 136.2 21.7 .221 166